When you browse on this site, cookies collect data to enhance your experience and personalize the content and advertising you see.
Visit our Privacy Policy to learn more. By continuing to use the site, you agree to this use of cookies and data.
  • In United Kingdom
  • List of Countries
  • For 7 days
  • Water Temperature
  • Weather Map
  • Weather Widgets
  • user-avatar
    Login

    Hourly Weather Whitstable

    Today, 27 May, Wednesday

    Time Temperature Precipitation Wind Pressure Humidity
    00:00 +14°C° 0 mm 2 mps 773 mmHg 76%
    01:00 +14°C° 0 mm 2 mps 773 mmHg 76%
    02:00 +13°C° 0 mm 2 mps 773 mmHg 76%
    03:00 +13°C° 0 mm 2 mps 773 mmHg 76%
    04:00 +13°C° 0 mm 2 mps 773 mmHg 75%
    05:00 +14°C° 0 mm 2 mps 773 mmHg 75%
    06:00 +15°C° 0 mm 2 mps 773 mmHg 74%
    07:00 +16°C° 0 mm 2 mps 773 mmHg 72%
    08:00 +17°C° 0 mm 2 mps 773 mmHg 70%
    09:00 +18°C° 0 mm 2 mps 773 mmHg 67%
    10:00 +18°C° 0 mm 3 mps 773 mmHg 67%
    11:00 +19°C° 0 mm 3 mps 773 mmHg 66%
    12:00 +20°C° 0 mm 3 mps 773 mmHg 65%
    13:00 +19°C° 0 mm 4 mps 773 mmHg 65%
    14:00 +19°C° 0 mm 4 mps 773 mmHg 66%
    15:00 +19°C° 0 mm 4 mps 773 mmHg 67%
    16:00 +18°C° 0 mm 4 mps 773 mmHg 68%
    17:00 +17°C° 0 mm 4 mps 773 mmHg 70%
    18:00 +15°C° 0 mm 4 mps 772 mmHg 72%
    19:00 +14°C° 0 mm 4 mps 773 mmHg 74%
    20:00 +13°C° 0 mm 4 mps 773 mmHg 76%
    21:00 +12°C° 0 mm 4 mps 773 mmHg 78%
    22:00 +11°C° 0 mm 4 mps 773 mmHg 83%
    23:00 +10°C° 0 mm 4 mps 773 mmHg 87%

    Tomorrow, 28 May, Thursday

    Time Temperature Precipitation Wind Pressure Humidity
    00:00 +10°C° 0 mm 4 mps 773 mmHg 92%
    01:00 +10°C° 0 mm 4 mps 773 mmHg 92%
    02:00 +8°C° 0 mm 4 mps 773 mmHg 93%
    03:00 +8°C° 0 mm 4 mps 773 mmHg 93%
    04:00 +10°C° 0 mm 4 mps 773 mmHg 89%
    05:00 +11°C° 0 mm 4 mps 773 mmHg 84%
    06:00 +12°C° 0 mm 5 mps 773 mmHg 80%
    07:00 +13°C° 0 mm 5 mps 773 mmHg 73%
    08:00 +14°C° 0 mm 5 mps 773 mmHg 66%
    09:00 +15°C° 0 mm 5 mps 773 mmHg 59%
    10:00 +16°C° 0 mm 5 mps 772 mmHg 58%
    11:00 +16°C° 0 mm 5 mps 772 mmHg 56%
    12:00 +17°C° 0 mm 5 mps 772 mmHg 55%
    13:00 +16°C° 0 mm 5 mps 771 mmHg 56%
    14:00 +16°C° 0 mm 6 mps 771 mmHg 57%
    15:00 +16°C° 0 mm 6 mps 771 mmHg 58%
    16:00 +15°C° 0 mm 6 mps 770 mmHg 61%
    17:00 +15°C° 0 mm 5 mps 770 mmHg 64%
    18:00 +14°C° 0 mm 5 mps 770 mmHg 67%
    19:00 +12°C° 0 mm 5 mps 770 mmHg 73%
    20:00 +10°C° 0 mm 5 mps 770 mmHg 78%
    21:00 +8°C° 0 mm 5 mps 770 mmHg 83%
    22:00 +8°C° 0 mm 4 mps 770 mmHg 84%
    23:00 +8°C° 0 mm 4 mps 770 mmHg 84%

    Day after tomorrow, 29 May, Friday

    Time Temperature Precipitation Wind Pressure Humidity
    00:00 +8°C° 0 mm 4 mps 769 mmHg 85%
    01:00 +8°C° 0 mm 4 mps 769 mmHg 86%
    02:00 +9°C° 0 mm 3 mps 769 mmHg 88%
    03:00 +9°C° 0 mm 3 mps 769 mmHg 90%
    04:00 +10°C° 0 mm 3 mps 769 mmHg 88%
    05:00 +11°C° 0 mm 3 mps 768 mmHg 85%
    06:00 +12°C° 0 mm 3 mps 768 mmHg 83%
    07:00 +14°C° 0 mm 4 mps 768 mmHg 76%
    08:00 +15°C° 0 mm 4 mps 768 mmHg 70%
    09:00 +16°C° 0 mm 5 mps 768 mmHg 63%
    10:00 +16°C° 0 mm 5 mps 768 mmHg 58%
    11:00 +17°C° 0 mm 5 mps 768 mmHg 54%
    12:00 +17°C° 0 mm 5 mps 767 mmHg 49%
    13:00 +17°C° 0 mm 5 mps 767 mmHg 50%
    14:00 +17°C° 0 mm 5 mps 767 mmHg 51%
    15:00 +16°C° 0 mm 5 mps 766 mmHg 51%
    16:00 +15°C° 0 mm 5 mps 766 mmHg 56%
    17:00 +15°C° 0 mm 5 mps 766 mmHg 61%
    18:00 +14°C° 0 mm 5 mps 765 mmHg 66%
    19:00 +12°C° 0 mm 5 mps 766 mmHg 74%
    20:00 +10°C° 0 mm 5 mps 766 mmHg 81%
    21:00 +8°C° 0 mm 4 mps 766 mmHg 88%
    22:00 +8°C° 0 mm 4 mps 766 mmHg 90%
    23:00 +10°C° 0 mm 4 mps 766 mmHg 91%

    30 May, Saturday

    Time Temperature Precipitation Wind Pressure Humidity
    00:00 +10°C° 0 mm 4 mps 766 mmHg 93%
    01:00 +10°C° 0 mm 4 mps 765 mmHg 93%
    02:00 +10°C° 0 mm 4 mps 765 mmHg 93%
    03:00 +10°C° 0 mm 3 mps 765 mmHg 93%
    04:00 +11°C° 0 mm 3 mps 765 mmHg 90%
    05:00 +12°C° 0 mm 3 mps 765 mmHg 87%
    06:00 +13°C° 0 mm 3 mps 765 mmHg 84%
    07:00 +16°C° 0 mm 3 mps 765 mmHg 77%
    08:00 +17°C° 0 mm 4 mps 765 mmHg 69%
    09:00 +19°C° 0 mm 4 mps 765 mmHg 62%
    10:00 +19°C° 0 mm 4 mps 765 mmHg 58%
    11:00 +20°C° 0 mm 4 mps 765 mmHg 55%
    12:00 +20°C° 0 mm 4 mps 765 mmHg 51%
    13:00 +20°C° 0 mm 4 mps 765 mmHg 52%
    14:00 +20°C° 0 mm 5 mps 764 mmHg 52%
    15:00 +20°C° 0 mm 5 mps 764 mmHg 53%
    16:00 +19°C° 0 mm 5 mps 764 mmHg 57%
    17:00 +17°C° 0 mm 5 mps 764 mmHg 62%
    18:00 +16°C° 0 mm 5 mps 764 mmHg 66%
    19:00 +14°C° 0 mm 5 mps 764 mmHg 75%
    20:00 +12°C° 0 mm 4 mps 764 mmHg 83%
    21:00 +11°C° 0 mm 4 mps 764 mmHg 91%
    22:00 +10°C° 0 mm 4 mps 764 mmHg 91%
    23:00 +10°C° 0 mm 4 mps 764 mmHg 92%

    31 May, Sunday

    Time Temperature Precipitation Wind Pressure Humidity
    00:00 +10°C° 0 mm 4 mps 764 mmHg 92%
    01:00 +10°C° 0 mm 4 mps 764 mmHg 93%
    02:00 +10°C° 0 mm 4 mps 764 mmHg 93%
    03:00 +10°C° 0 mm 4 mps 764 mmHg 93%
    04:00 +11°C° 0 mm 4 mps 764 mmHg 92%
    05:00 +12°C° 0 mm 4 mps 764 mmHg 91%
    06:00 +13°C° 0 mm 4 mps 764 mmHg 89%
    07:00 +15°C° 0 mm 4 mps 764 mmHg 84%
    08:00 +17°C° 0 mm 4 mps 764 mmHg 78%
    09:00 +18°C° 0 mm 4 mps 764 mmHg 73%
    10:00 +19°C° 0 mm 5 mps 764 mmHg 70%
    11:00 +19°C° 0 mm 5 mps 764 mmHg 68%
    12:00 +19°C° 0 mm 5 mps 764 mmHg 65%
    13:00 +19°C° 0 mm 5 mps 763 mmHg 65%
    14:00 +19°C° 0 mm 5 mps 763 mmHg 66%
    15:00 +19°C° 0 mm 5 mps 763 mmHg 66%
    16:00 +17°C° 0 mm 5 mps 763 mmHg 69%
    17:00 +16°C° 0 mm 5 mps 762 mmHg 72%
    18:00 +15°C° 0 mm 5 mps 762 mmHg 75%
    19:00 +14°C° 0 mm 5 mps 762 mmHg 81%
    20:00 +12°C° 0 mm 4 mps 762 mmHg 87%
    21:00 +11°C° 0 mm 4 mps 762 mmHg 94%
    22:00 +10°C° 0 mm 4 mps 762 mmHg 93%
    23:00 +10°C° 0 mm 4 mps 762 mmHg 93%

    1 June, Monday

    Time Temperature Precipitation Wind Pressure Humidity
    00:00 +10°C° 0 mm 4 mps 762 mmHg 93%
    01:00 +10°C° 0 mm 4 mps 762 mmHg 93%
    02:00 +10°C° 0 mm 4 mps 762 mmHg 93%
    03:00 +10°C° 0 mm 4 mps 761 mmHg 93%
    04:00 +11°C° 0 mm 4 mps 761 mmHg 92%
    05:00 +12°C° 0 mm 4 mps 761 mmHg 90%
    06:00 +13°C° 0 mm 4 mps 761 mmHg 89%
    07:00 +14°C° 0 mm 4 mps 761 mmHg 83%
    08:00 +17°C° 0 mm 4 mps 761 mmHg 76%
    09:00 +18°C° 0 mm 4 mps 761 mmHg 70%
    10:00 +18°C° 0 mm 4 mps 761 mmHg 68%
    11:00 +19°C° 0 mm 4 mps 760 mmHg 65%
    12:00 +19°C° 0 mm 4 mps 760 mmHg 63%
    13:00 +19°C° 0 mm 4 mps 760 mmHg 64%
    14:00 +19°C° 0 mm 4 mps 760 mmHg 64%
    15:00 +19°C° 0 mm 4 mps 760 mmHg 65%
    16:00 +18°C° 0 mm 4 mps 759 mmHg 68%
    17:00 +17°C° 0 mm 4 mps 759 mmHg 71%
    18:00 +15°C° 0 mm 4 mps 759 mmHg 74%
    19:00 +13°C° 0 mm 4 mps 759 mmHg 80%
    20:00 +12°C° 0 mm 4 mps 759 mmHg 86%
    21:00 +10°C° 0 mm 4 mps 760 mmHg 91%
    22:00 +10°C° 0 mm 3 mps 759 mmHg 91%
    23:00 +10°C° 0 mm 3 mps 759 mmHg 91%
    Show more